[[{"header":{"parameterUnit":"m.s-1","parameterCategory":1,"la1":30.2992,"la2":30.254,"lo1":-89.0895,"lo2":-89.0443,"dy":0.0025,"dx":0.0025,"nx":19,"ny":19,"refTime":"2026-04-29T21:00:00:Z","depth":0,"parameterNumber":2,"parameterNumberName":"U-component_of_WINDS"},"data":[0,0,0,-2.7063,-2.7066,-2.7174,-2.7175,-2.7337,-2.7339,0,0,0,0,0,0,0,0,0,0,0,-2.7046,-2.7047,-2.7063,-2.7066,-2.7174,-2.7175,-2.7337,-2.7339,0,0,0,0,0,0,0,0,0,0,0,-2.7045,-2.7047,-2.7049,-2.7067,-2.7174,-2.7175,-2.7337,-2.7246,0,0,0,0,0,0,0,0,0,0,-2.7137,-2.7135,-2.7047,-2.7049,-2.7067,-2.7174,-2.7175,-2.7242,-2.7252,-2.7299,0,-2.7344,0,-2.7344,-2.7351,-2.7352,0,0,0,-2.7055,-2.7127,-2.7143,-2.7049,-2.7068,-2.7174,-2.7122,-2.7247,-2.7259,-2.7313,-2.7346,-2.7352,-2.7347,-2.7353,-2.7354,-2.7661,-2.7663,0,0,-2.7049,-2.7073,-2.7135,-2.7151,-2.7136,-2.7119,-2.7126,-2.7254,-2.7292,-2.7347,-2.7355,-2.735,-2.7354,-2.7355,-2.7659,-2.7662,0,0,0,-2.7039,-2.707,-2.7082,-2.7145,-2.7163,-2.7122,-2.713,-2.7286,-2.7288,-2.7357,-2.7352,-2.7355,-2.7357,-2.7657,-2.766,-2.7783,0,0,0,-2.7035,-2.7064,-2.708,-2.7096,-2.7161,-2.7226,-2.7161,-2.7279,-2.7293,-2.7351,-2.7355,-2.7359,-2.7655,-2.7659,-2.7774,-2.7837,0,0,0,-2.7034,-2.7063,-2.7084,-2.7097,-2.7144,-2.7223,-2.7232,-2.7282,-2.7291,-2.7352,-2.736,-2.7653,-2.7658,-2.7767,-2.7825,-2.7927,0,0,0,-2.7039,-2.719,-2.7087,-2.7253,-2.7144,-2.7298,-2.7231,-2.7344,-2.7411,-2.7356,-2.7655,-2.766,-2.7765,-2.7818,-2.792,-2.802,-2.8063,0,0,-2.7244,-2.7216,-2.7312,-2.7222,-2.7402,-2.7279,-2.7476,-2.7514,-2.7496,-2.7607,-2.7614,-2.7777,-2.7825,-2.7926,-2.8291,-2.8326,0,0,0,-2.7385,-2.7455,-2.7497,-2.7563,-2.7595,-2.7629,-2.7634,-2.7648,-2.774,-2.7558,-2.7839,-2.7866,-2.7925,-2.7972,-2.8001,-2.8051,-2.7681,-2.7681,-2.768,-2.7712,-2.7682,-2.784,-2.7824,-2.7887,-2.7891,-2.7941,-2.796,-2.791,-2.7977,-2.8011,-2.8236,-2.8292,-2.8314,-2.8366,-2.8058,-2.8059,-2.8059,-2.806,-2.8011,-2.8107,-2.8037,-2.8166,-2.8133,-2.8241,-2.825,-2.8211,-2.8307,-2.8208,-2.8258,-2.8156,-2.8353,-2.8397,-2.8069,-2.8067,-2.8066,-2.8065,-2.8064,-2.8225,-2.8266,-2.8279,-2.8371,-2.8445,-2.8422,-2.8518,-2.8483,-2.8452,-2.8501,-2.8534,-2.8532,-2.8528,-2.8518,-2.8519,-2.852,-2.8521,-2.8521,-2.8522,-2.8442,-2.8454,-2.8539,-2.8586,-2.8624,-2.8669,-2.8674,-2.871,-2.8741,-2.8709,-2.8709,-2.8655,-2.8376,-2.8309,-2.8534,-2.8532,-2.853,-2.8529,-2.8528,-2.8763,-2.8685,-2.8817,-2.8855,-2.8908,-2.8984,-2.8938,-2.9015,-2.9039,-2.9088,-2.9022,-2.882,-2.879,-2.8766,-2.8711,-2.9026,-2.9026,-2.9026,-2.9026,-2.8946,-2.8926,-2.9054,-2.9117,-2.9175,-2.9146,-2.9297,-2.9302,-2.9294,-2.9307,-2.9256,-2.9178,-2.9155,-2.9138,-2.9106,-2.9054,-2.945,-2.945,-2.945,-2.9143,-2.9127,-2.9263,-2.9254,-2.9293,-2.9327,-2.9468,-2.9543,-2.9517,-2.9467,-2.9318,-2.93,-2.9173,-2.9133,-2.9083,-2.9035,-2.8938,0,0]},{"header":{"parameterUnit":"m.s-1","parameterCategory":1,"la1":30.2992,"la2":30.254,"lo1":-89.0895,"lo2":-89.0443,"dy":0.0025,"dx":0.0025,"nx":19,"ny":19,"refTime":"2026-04-29T21:00:00:Z","depth":0,"parameterNumber":3,"parameterNumberName":"V-component_of_WINDS"},"data":[0,0,0,-5.1807,-5.1809,-5.1871,-5.1871,-5.1953,-5.1954,0,0,0,0,0,0,0,0,0,0,0,-5.1793,-5.1794,-5.1807,-5.1809,-5.1871,-5.1871,-5.1953,-5.1954,0,0,0,0,0,0,0,0,0,0,0,-5.1793,-5.1793,-5.1794,-5.1809,-5.1871,-5.1871,-5.1953,-5.1904,0,0,0,0,0,0,0,0,0,0,-5.1843,-5.1835,-5.1793,-5.1794,-5.1809,-5.1871,-5.1871,-5.1902,-5.1907,-5.1927,0,-5.1947,0,-5.1952,-5.196,-5.196,0,0,0,-5.1805,-5.183,-5.1844,-5.1795,-5.181,-5.1871,-5.1842,-5.1905,-5.1911,-5.1934,-5.1948,-5.1951,-5.1953,-5.196,-5.1961,-5.2089,-5.209,0,0,-5.1801,-5.1806,-5.1839,-5.1848,-5.1841,-5.184,-5.1844,-5.1908,-5.1924,-5.1949,-5.1953,-5.1955,-5.1961,-5.1961,-5.2089,-5.209,0,0,0,-5.1794,-5.1804,-5.1815,-5.1845,-5.1856,-5.1842,-5.1846,-5.1921,-5.1924,-5.1954,-5.1956,-5.1961,-5.1962,-5.2088,-5.2089,-5.2131,0,0,0,-5.1792,-5.1799,-5.1814,-5.1817,-5.1855,-5.189,-5.1857,-5.192,-5.1927,-5.1955,-5.1961,-5.1963,-5.2087,-5.2089,-5.2128,-5.215,0,0,0,-5.1787,-5.1799,-5.1809,-5.1817,-5.1844,-5.1889,-5.1896,-5.1921,-5.1928,-5.196,-5.1963,-5.2087,-5.2088,-5.2126,-5.2145,-5.2183,0,0,0,-5.1783,-5.1846,-5.181,-5.1881,-5.1844,-5.1916,-5.1895,-5.1948,-5.198,-5.1962,-5.2087,-5.2089,-5.2125,-5.2143,-5.218,-5.2215,-5.223,0,0,-5.1865,-5.1856,-5.1898,-5.1867,-5.1946,-5.1906,-5.199,-5.2015,-5.2013,-5.2063,-5.2066,-5.2129,-5.2145,-5.2183,-5.2318,-5.2331,0,0,0,-5.1925,-5.1954,-5.1974,-5.2006,-5.2028,-5.2047,-5.2058,-5.2067,-5.211,-5.2041,-5.2154,-5.2163,-5.2185,-5.2201,-5.2212,-5.2229,-5.2097,-5.2097,-5.2097,-5.2046,-5.2041,-5.2108,-5.211,-5.2141,-5.2152,-5.2176,-5.2189,-5.2175,-5.2202,-5.2216,-5.2299,-5.2318,-5.2326,-5.2344,-5.2235,-5.2235,-5.2236,-5.2236,-5.2163,-5.2203,-5.2183,-5.2241,-5.2234,-5.2281,-5.2294,-5.2282,-5.2323,-5.2288,-5.2307,-5.2268,-5.234,-5.2355,-5.2239,-5.2238,-5.2238,-5.2238,-5.2237,-5.224,-5.2258,-5.2269,-5.2313,-5.2347,-5.2347,-5.2387,-5.238,-5.2373,-5.2392,-5.2405,-5.2404,-5.24,-5.2399,-5.2399,-5.24,-5.24,-5.24,-5.24,-5.2315,-5.2326,-5.2362,-5.2389,-5.2407,-5.243,-5.2441,-5.2458,-5.2475,-5.2466,-5.2466,-5.2447,-5.2349,-5.2323,-5.2405,-5.2404,-5.2403,-5.2403,-5.2403,-5.2433,-5.2405,-5.246,-5.2479,-5.2508,-5.2541,-5.2532,-5.2567,-5.258,-5.2599,-5.2577,-5.2506,-5.2496,-5.2487,-5.2465,-5.258,-5.258,-5.258,-5.258,-5.2496,-5.2491,-5.2544,-5.2574,-5.2602,-5.2599,-5.2658,-5.2666,-5.267,-5.2677,-5.266,-5.2631,-5.2623,-5.2617,-5.2606,-5.2585,-5.2727,-5.2727,-5.2728,-5.2566,-5.2563,-5.2616,-5.2621,-5.2643,-5.2662,-5.2717,-5.2749,-5.2747,-5.2733,-5.2681,-5.2675,-5.2629,-5.2614,-5.2597,-5.258,-5.2542,0,0]}]]